This is the latest recevied weather packets stored in our database for station/object K8BCO. If no packets are shown the sender has not sent any weather packets the latest 10 day(s).
| Time | Temp. | Humidity | Pressure | Rain* | Wind** | Luminosity | Snow |
|---|---|---|---|---|---|---|---|
| 1777949717 | 7.22° C | 58% | 998 hPa | 0 mm | - | 0 W/m² | - |
| 1777949117 | 7.22° C | 58% | 998 hPa | 0 mm | - | 0 W/m² | - |
| 1777948517 | 7.22° C | 57% | 997.8 hPa | 0 mm | - | 0 W/m² | - |
| 1777947917 | 7.22° C | 57% | 997.7 hPa | 0 mm | - | 0 W/m² | - |
| 1777947317 | 7.78° C | 57% | 997.7 hPa | 0 mm | - | 0 W/m² | - |
| 1777946718 | 7.78° C | 57% | 997.6 hPa | 0 mm | - | 0 W/m² | - |
| 1777946118 | 7.78° C | 56% | 997.4 hPa | 0 mm | - | 0 W/m² | - |
| 1777945518 | 7.78° C | 56% | 997.2 hPa | 0 mm | - | 0 W/m² | - |
| 1777944918 | 8.33° C | 55% | 997 hPa | 0 mm | - | 0 W/m² | - |
| 1777944316 | 8.33° C | 55% | 996.8 hPa | 0 mm | - | 0 W/m² | - |
| 1777943715 | 8.89° C | 54% | 996.6 hPa | 0 mm | - | 1 W/m² | - |
| 1777943116 | 8.89° C | 53% | 996.5 hPa | 0 mm | - | 4 W/m² | - |
| 1777942515 | 9.44° C | 52% | 996.4 hPa | 0 mm | - | 9 W/m² | - |
| 1777941916 | 9.44° C | 51% | 996.1 hPa | 0 mm | - | 14 W/m² | - |
| 1777941316 | 10° C | 50% | 996 hPa | 0 mm | - | 20 W/m² | - |
| 1777940716 | 10° C | 49% | 996 hPa | 0 mm | - | 25 W/m² | - |
| 1777940117 | 10.56° C | 48% | 995.8 hPa | 0 mm | - | 29 W/m² | - |
| 1777939517 | 10.56° C | 47% | 995.6 hPa | 0 mm | - | 33 W/m² | - |
| 1777938917 | 11.11° C | 46% | 995.4 hPa | 0 mm | - | 37 W/m² | - |
| 1777938317 | 11.67° C | 45% | 995.3 hPa | 0 mm | - | 49 W/m² | - |
| 1777937717 | 11.67° C | 46% | 995.1 hPa | 0 mm | - | 75 W/m² | - |
| 1777937117 | 12.22° C | 45% | 995 hPa | 0 mm | - | 118 W/m² | - |
| 1777936517 | 12.78° C | 44% | 995 hPa | 0 mm | - | 202 W/m² | - |
| 1777935918 | 12.78° C | 44% | 994.8 hPa | 0 mm | - | 243 W/m² | - |
| 1777935318 | 13.33° C | 43% | 994.6 hPa | 0 mm | - | 276 W/m² | - |
* Rain latest hour (hover to see other rain measurements)
** Current wind speed in m/s (hover to see current wind gust speed)